Location: Roswell
(33.3943°N, 104.5230°W)
Time: 13:19:09
(UTC+00:00)

Vanguard 2 Rocket - Pass Details

Date: 17 November 2024
Orbit: 554 x 3296 km, 32.9° (Epoch: 30 November)

Event Time Altitude Azimuth Distance (km) Brightness Sun altitude
Exits shadow 11:25:51 - 214° (SSW) 3,899 9.9 -26.2°
Reaches altitude 10° 11:26:39 10° 211° (SSW) 3,707 9.8 -26.0°
Maximum altitude 11:36:16 45° 142° (SE) 2,794 9.6 -24.1°
Drops below altitude 10° 11:51:49 10° 78° (ENE) 5,876 12.0 -20.9°
Sets 11:57:14 0° 74° (ENE) 7,124 12.6 -19.7°
